    Orbital elements:
    2022 KJ5                                                 Earth MOID = 0.0118 AU
    Epoch 2022 Jan. 21.0 TT = JDT 2459600.5                 Veres                   
    M 321.22944              (2000.0)            P               Q                  
    n   0.26835866     Peri.   21.50272     -0.07559719     +0.95347773             
    a   2.3804495      Node   245.17624     -0.95532524     -0.15311850             
    e   0.5803516      Incl.   18.75609     -0.28572496     +0.25968238             
    P   3.67           H   24.83          G   0.15           U   7                  
    Residuals in seconds of arc
    220527 703  0.1+  0.1-    220529 P93  0.0   0.2+    220529 J69  0.6-  0.2+
    220527 703 (0.8-  3.4-)   220529 P93  0.5+  0.6+    220529 J69  0.2-  0.1-
    220527 703  0.3-  0.2+    220529 P93  0.3+  0.1+    220529 J69  0.6+  0.1-
    220529 703  0.4-  2.0-    220529 P93  0.3-  0.2+    220530 Y00  0.6+  1.4+
    220529 703  1.2-  2.5-    220529 958  0.5+  0.6+    220530 033  0.3+  0.5+
    220529 703  1.0+  1.9+    220529 958  0.1-  0.6+    220530 033  0.2+  0.4+
    220529 703  1.1-  4.1-    220529 958  0.5-  0.4+    220530 Y00  1.2+  1.9+
    220529 I52  0.2+  0.1-    220529 Z80  0.0   0.2+    220530 033  0.0   0.1-
    220529 I52  0.1+  0.2-    220529 Z99  0.2+  0.7+    220530 W34  0.1-  0.4+
    220529 I52  0.1+  0.2-    220529 Z99 (0.7+  1.5+)   220530 W34  0.1-  0.5+
    220529 I52  0.0   0.3-    220529 Z99 (0.7+  1.3+)   220530 W34  0.1+  0.4+
    220529 I52  0.5+  0.0     220529 L01  0.1-  0.2-    220530 H21  0.1-  0.1+
    220529 I52  0.1+  0.1-    220529 Z80  0.7+  0.2-    220530 H21  0.0   0.3+
    220529 I52  0.0   0.1-    220529 L01  0.1+  0.3-    220530 H21  0.2-  0.3+
    220529 I52  0.3+  0.1-    220529 L01  0.3+  0.5-    220530 H21  0.3-  0.2+
    220529 900  0.4+  0.0     220529 033  0.2+  0.2+    220530 H21  0.1-  0.4+
    220529 900  0.1+  0.2+    220529 033  0.2+  0.3+    220530 H21  0.0   0.4+
    220529 900  0.1+  0.0     220529 033  0.2+  0.4+    220530 H21  0.2-  0.4+
    220529 900  0.2-  0.2-    220529 L01  0.6-  0.1-    220530 654  0.1-  0.4-
    220529 900  0.4-  0.6-    220529 Z80  0.5-  0.6+    220530 654  0.3-  0.2-
    220529 900  0.1-  0.1+    220529 J69  0.2-  0.2-
    
    Ephemeris:
    2022 KJ5                 a,e,i = 2.38, 0.58, 19                  q = 0.9990
    Date    TT    R. A. (2000) Decl.     Delta      r    Elong.  Phase     V
    2022 04 30    11 12 03.9 -54 02 25   0.2314  1.1564   125.3    45.3    23.7
    ...
    2022 05 15    11 11 54.7 -50 05 45   0.1142  1.0743   121.2    53.6    22.2
    ...
    2022 05 23    11 35 25.8 -39 44 08   0.05300 1.0410   121.4    56.1    20.6
    ...
    2022 05 29    13 00 48.4 +20 00 09   0.01903 1.0219   115.6    63.4    18.5
    2022 05 30    13 39 55.1 +41 53 21   0.01981 1.0192   105.7    73.2    18.9
    2022 05 31    14 37 20.6 +58 24 57   0.02341 1.0167    96.4    82.3    19.6
    ...
    2022 06 06    20 37 00.4 +69 56 15   0.06388 1.0050    79.5    96.9    22.3
    ...
    2022 06 14    21 50 16.6 +64 41 50   0.1245  0.9989    78.8    94.2    23.7
    ...
    2022 06 29    22 20 47.0 +61 40 17   0.2334  1.0168    83.5    83.4    24.6
    
    M. P. C. Staff               (C) Copyright 2022 MPC           M.P.E.C. 2022-K157
    


    Read MPEC 2022-K156 Read MPEC 2022-K158


    MPEC number:

    Enter an MPEC number in one of the following forms:

    • 1997-B01 (the full form)
    • J97B01 (the packed version of the full form)
    • B01 (the abbreviated form)